Flag for Germany Weather past 2 weeks in Homburg (Saar), Saarland, Germany

Now
72 °F

Sunny.


Feels Like: 75 °F
Forecast: 61 / 88 °F
Wind: 12 mph from Southwest

Location: Saarbruecken / Ensheim

Current Time: Aug 30, 2015 at 8:53:08 AM

Latest Report: Aug 30, 2015 at 8:20 AM


Visibility: 10 mi

Pressure: 30.09 "Hg

Humidity: 65%

Dew point: 59 °F

Location of Homburg (Saar)Location

Historic Weather in Homburg (Saar) — Graph

°F

Homburg (Saar) temperature yesterday

Maximum temperature yesterday: 86 °F (at 3:50 PM)
Minimum temperature yesterday: 61 °F (at 12:50 AM)
Average temperature yesterday: 73 °F

Past Weeks' High & Low Weather Summary

 TemperatureHumidityPressure
High86 °F (Aug 29, 3:50 PM)100% (Aug 19, 7:20 AM)30.27 "Hg (Aug 19, 7:20 AM)
Low46 °F (Aug 19, 5:50 AM)28% (Aug 22, 6:20 PM)29.68 "Hg (Aug 24, 6:20 AM)
Average64 °F70%30.01 "Hg
* Reported Aug 15 7:20 AM — Aug 30 7:20 AM, Homburg (Saar), Weather by CustomWeather, © 2015

Note: Actual official high and low records may vary slightly from our data, if they occured in-between our weather recording intervals... More about our weather records

Advertising

Homburg (Saar) weather history for previous 24 hours

 ConditionsComfort  
Time TempWeatherWind HumidityBarometerVisibility
7:20 AM
Sun, Aug 30
70 °FPassing clouds.3 mph78%30.09 "HgN/A
6:50 AM68 °FClear.2 mph88%30.09 "Hg10 mi
6:20 AM66 °FClear.2 mph88%30.09 "Hg10 mi
5:50 AM66 °FClear.3 mph88%30.09 "Hg10 mi
5:20 AM66 °FClear.5 mph88%30.09 "Hg10 mi
4:50 AM66 °FClear.5 mph88%30.09 "Hg10 mi
4:20 AM66 °FClear.3 mph94%30.09 "Hg10 mi
3:50 AM66 °FClear.2 mph88%30.09 "Hg10 mi
3:20 AM68 °FClear.2 mph83%30.09 "Hg10 mi
2:50 AM68 °FClear.2 mph83%30.09 "Hg10 mi
2:20 AM70 °FClear.2 mph78%30.09 "Hg10 mi
1:50 AM70 °FClear.6 mph78%30.09 "Hg10 mi
1:20 AM70 °FPassing clouds.6 mph83%30.09 "HgN/A
12:50 AM70 °FClear.6 mph83%30.09 "Hg10 mi
12:20 AM70 °FClear.5 mph83%30.09 "Hg10 mi
11:50 PM
Sat, Aug 29
72 °FClear.6 mph78%30.12 "Hg10 mi
11:20 PM72 °FClear.5 mph78%30.12 "Hg10 mi
10:50 PM73 °FClear.5 mph78%30.12 "Hg10 mi
10:20 PM73 °FClear.6 mph78%30.12 "Hg10 mi
9:50 PM75 °FClear.7 mph74%30.09 "Hg10 mi
9:20 PM75 °FSunny.6 mph74%30.09 "Hg10 mi
8:50 PM77 °FSunny.7 mph65%30.09 "Hg10 mi
8:20 PM79 °FSunny.2 mph61%30.09 "Hg10 mi
7:50 PM82 °FSunny.3 mph51%30.09 "Hg10 mi
7:20 PM82 °FSunny.5 mph51%30.09 "Hg10 mi
6:50 PM84 °FSunny.5 mph48%30.09 "Hg10 mi
6:20 PM84 °FPassing clouds.3 mph43%30.09 "HgN/A
5:50 PM86 °FSunny.2 mph43%30.09 "Hg10 mi
5:20 PM86 °FPassing clouds.5 mph40%30.12 "HgN/A
4:50 PM86 °FPassing clouds.5 mph43%30.12 "HgN/A
4:20 PM86 °FPassing clouds.3 mph46%30.12 "HgN/A
3:50 PM86 °FPassing clouds.5 mph49%30.12 "HgN/A
3:20 PM84 °FScattered clouds.5 mph48%30.15 "HgN/A
2:50 PM84 °FScattered clouds.7 mph48%30.15 "HgN/A
2:20 PM82 °FScattered clouds.5 mph51%30.15 "HgN/A
1:50 PM82 °FScattered clouds.5 mph55%30.18 "HgN/A
1:20 PM81 °FPassing clouds.5 mph58%30.18 "HgN/A
12:50 PM79 °FPassing clouds.5 mph65%30.18 "HgN/A
11:50 AM77 °FPassing clouds.6 mph69%30.18 "HgN/A
11:20 AM75 °FPassing clouds.8 mph74%30.18 "HgN/A
10:50 AM73 °FPassing clouds.7 mph74%30.18 "HgN/A
9:50 AM68 °FPassing clouds.6 mph83%30.18 "Hg5 mi
9:20 AM66 °FMild.7 mph88%30.18 "HgN/A
8:50 AM64 °FFog.7 mph94%30.18 "Hg1 mi
Weather by CustomWeather, © 2015

See weather overviewHow to use our weather pages